Weather History for EHAM - October, 2012

Change the Weather History Date:

Monday, October 22, 2012

  Actual Average Record
Temperature  
Mean Temperature 60 °F -  
Max Temperature 68 °F 50 °F 70 °F (2013)
Min Temperature 53 °F 41 °F 28 °F (1997)
Degree Days  
Heating Degree Days 4    
Growing Degree Days 10 (Base 50)    
Moisture  
Dew Point 57 °F    
Average Humidity 91    
Maximum Humidity 100    
Minimum Humidity 70    
Precipitation  
Precipitation 0.00 in - - ()
Sea Level Pressure  
Sea Level Pressure 30.12 in    
Wind  
Wind Speed 4 mph ()    
Max Wind Speed 8 mph    
Max Gust Speed -    
Visibility 1.5 miles    
Events Fog    
Averages and records for this station are not official NWS values.
T = Trace of Precipitation, MM = Missing Value Source: Averaged Metar Reports

Daily Weather History Graph

Daily Weather History Graph

Search for Another Location

Airport or City:

Trip Planner

Search our weather history database for the weather conditions in past years. The results will help you decide how hot, cold, wet, or windy it might be!

Date:

Astronomy

Oct. 22, 2012 Rise Set
Actual Time 8:18 AM CEST 6:30 PM CEST
Civil Twilight 7:44 AM CEST 7:05 PM CEST
Nautical Twilight 7:04 AM CEST 7:45 PM CEST
Astronomical Twilight 6:25 AM CEST 8:24 PM CEST
Moon 3:17 PM CEST (10/22) No Moon Set
Length of Visible Light 11h 21m
Length of Day
10h 11m
First Quarter, 53% of the Moon is Illuminated
Oct 22
First Quarter
Oct 29
Full
Nov 7
Last Quarter
Nov 13
New
Nov 20
First Quarter

Hourly Weather History & Observations

Time (CEST) Temp. Dew Point Humidity Pressure Visibility Wind Dir Wind Speed Gust Speed Precip Events Conditions
12:25 AM 55.4 °F 55.4 °F 100% 30.06 in 0.4 mi ENE 5.8 mph - N/A Fog Fog
12:55 AM 55.4 °F 55.4 °F 100% 30.06 in 0.4 mi ENE 5.8 mph - N/A Fog Fog
1:25 AM 55.4 °F 55.4 °F 100% 30.06 in 0.3 mi ENE 5.8 mph - N/A Fog Fog
1:55 AM 55.4 °F 55.4 °F 100% 30.06 in 0.3 mi ENE 4.6 mph - N/A Fog Fog
2:00 AM 56 °F 56 °F 99% 30.09 in 0 mi ENE 4.5 mph - - Fog Fog
2:25 AM 55.4 °F 55.4 °F 100% 30.06 in 0.3 mi ENE 3.5 mph - N/A Fog Fog
2:55 AM 55.4 °F 55.4 °F 100% 30.06 in 0.3 mi ENE 4.6 mph - N/A Fog Fog
3:25 AM 55.4 °F 55.4 °F 100% 30.06 in 0.2 mi ENE 5.8 mph - N/A Fog Fog
3:55 AM 55.4 °F 55.4 °F 100% 30.06 in 0.2 mi East 6.9 mph - N/A Fog Fog
4:25 AM 55.4 °F 55.4 °F 100% 30.06 in 0.3 mi East 4.6 mph - N/A Fog Fog
4:55 AM 55.4 °F 55.4 °F 100% 30.06 in 0.2 mi East 2.3 mph - N/A Fog Fog
5:00 AM 55 °F 55 °F 100% 30.09 in 0 mi East 2.2 mph - - Fog Fog
5:25 AM 55.4 °F 55.4 °F 100% 30.06 in 0.2 mi ESE 2.3 mph - N/A Fog Fog
5:55 AM 55.4 °F 55.4 °F 100% 30.06 in 0.2 mi ENE 3.5 mph - N/A Fog Fog
6:25 AM 55.4 °F 55.4 °F 100% 30.06 in 0.2 mi NE 3.5 mph - N/A Fog Fog
6:55 AM 55.4 °F 55.4 °F 100% 30.06 in 0.2 mi NE 4.6 mph - N/A Fog Fog
7:25 AM 55.4 °F 55.4 °F 100% 30.06 in 0.2 mi NE 5.8 mph - N/A Fog Fog
7:55 AM 55.4 °F 55.4 °F 100% 30.09 in 0.2 mi ENE 4.6 mph - N/A Fog Fog
8:25 AM 55.4 °F 55.4 °F 100% 30.09 in 0.2 mi East 4.6 mph - N/A Fog Fog
8:55 AM 53.6 °F 53.6 °F 100% 30.12 in 0.2 mi East 5.8 mph - N/A Fog Fog
9:25 AM 53.6 °F 53.6 °F 100% 30.12 in 0.2 mi East 5.8 mph - N/A Fog Fog
9:55 AM 55.4 °F 55.4 °F 100% 30.12 in 0.2 mi East 5.8 mph - N/A Fog Fog
10:25 AM 55.4 °F 55.4 °F 100% 30.12 in 0.2 mi Variable 2.3 mph - N/A Fog Fog
10:55 AM 55.4 °F 55.4 °F 100% 30.12 in 0.5 mi Variable 2.3 mph - N/A Fog Patches of Fog
11:00 AM 55 °F 55 °F 100% 30.15 in 1 mi North 4.5 mph - - Fog Fog
11:25 AM 57.2 °F 55.4 °F 94% 30.15 in 1.6 mi Variable 2.3 mph - N/A   Partly Cloudy
11:55 AM 57.2 °F 57.2 °F 100% 30.15 in - East 4.6 mph - N/A   Partly Cloudy
12:25 PM 60.8 °F 57.2 °F 88% 30.15 in 3.1 mi Variable 2.3 mph - N/A   Partly Cloudy
12:55 PM 62.6 °F 57.2 °F 82% 30.15 in 5.0 mi NE 4.6 mph - N/A   Unknown
1:25 PM 64.4 °F 59.0 °F 83% 30.12 in - ENE 3.5 mph - N/A   Clear
1:55 PM 66.2 °F 59.0 °F 78% 30.12 in - East 3.5 mph - N/A   Clear
2:00 PM 66 °F 58 °F 70% 30.15 in 6 mi East 2.2 mph - -   Mist
2:25 PM 66.2 °F 59.0 °F 78% 30.12 in - Variable 2.3 mph - N/A   Clear
2:55 PM 68.0 °F 59.0 °F 73% 30.12 in - NE 4.6 mph - N/A   Clear
3:25 PM 68.0 °F 59.0 °F 73% 30.15 in - NE 4.6 mph - N/A   Clear
3:55 PM 68.0 °F 59.0 °F 73% 30.15 in - ENE 4.6 mph - N/A   Clear
4:25 PM 68.0 °F 59.0 °F 73% 30.15 in - ENE 4.6 mph - N/A   Clear
4:55 PM 66.2 °F 59.0 °F 78% 30.15 in - ENE 4.6 mph - N/A   Clear
5:00 PM 67 °F 59 °F 70% 30.16 in 6 mi ENE 6.7 mph - -   Light Haze
5:25 PM 66.2 °F 59.0 °F 78% 30.15 in - NE 5.8 mph - N/A   Clear
5:55 PM 64.4 °F 59.0 °F 83% 30.15 in - NE 6.9 mph - N/A   Clear
6:25 PM 62.6 °F 59.0 °F 88% 30.15 in - ENE 5.8 mph - N/A   Clear
6:55 PM 60.8 °F 57.2 °F 88% 30.15 in - ENE 6.9 mph - N/A   Clear
7:25 PM 60.8 °F 57.2 °F 88% 30.15 in - ENE 8.1 mph - N/A   Clear
7:55 PM 60.8 °F 57.2 °F 88% 30.18 in - ENE 5.8 mph - N/A   Clear
8:00 PM 60 °F 57 °F 87% 30.19 in 6 mi ENE 6.7 mph - -   Mist
8:25 PM 60.8 °F 57.2 °F 88% 30.18 in - NE 5.8 mph - N/A   Clear
8:55 PM 60.8 °F 57.2 °F 88% 30.18 in - ENE 3.5 mph - N/A   Clear
9:25 PM 60.8 °F 57.2 °F 88% 30.18 in - ENE 4.6 mph - N/A   Clear
9:55 PM 60.8 °F 57.2 °F 88% 30.18 in - ENE 5.8 mph - N/A   Clear
10:25 PM 60.8 °F 57.2 °F 88% 30.18 in - NE 5.8 mph - N/A   Clear
10:55 PM 60.8 °F 57.2 °F 88% 30.18 in - ENE 6.9 mph - N/A   Clear
11:00 PM 60 °F 57 °F 88% 30.21 in 5 mi ENE 4.5 mph - -   Mist
11:25 PM 60.8 °F 57.2 °F 88% 30.18 in 5.6 mi ENE 4.6 mph - N/A   Unknown
11:55 PM 59.0 °F 57.2 °F 94% 30.21 in 5.0 mi ENE 4.6 mph - N/A   Unknown